Location: ???????
(55.9142°N, 37.8256°E)
Time: 21:40:38
(UTC+00:00)

Okean 1 - Visible Passes

Search period start: 12 July 2024 00:00
Search period end: 22 July 2024 00:00
Orbit: 503 x 529 km, 82.5° (Epoch: 12 July)

Date Brightness Start Highest point End Pass type
(mag) Time Alt. Az. Time Alt. Az. Time Alt. Az.
12 Jul 3.7 22:58:27 10° N 23:02:13 59° ENE 23:05:56 10° SSE visible
13 Jul 3.9 22:43:36 10° N 22:47:19 51° ENE 22:51:00 10° SSE visible
14 Jul 4.2 22:28:45 10° N 22:32:24 43° ENE 22:36:01 10° SE visible
15 Jul 4.6 00:04:57 10° NW 00:07:55 22° W 00:10:51 10° SW visible
15 Jul 4.4 22:13:54 10° N 22:17:28 37° ENE 22:21:00 10° SE visible
15 Jul 4.5 23:49:54 10° NNW 23:53:04 25° W 23:56:12 10° SW visible
16 Jul 4.6 21:59:03 10° N 22:02:30 32° ENE 22:05:56 10° SE visible
16 Jul 4.3 23:34:53 10° NNW 23:38:12 29° W 23:41:14 11° SSW visible
17 Jul 4.8 21:44:12 10° N 21:47:31 28° ENE 21:50:50 10° SE visible
17 Jul 4.0 23:19:52 10° NNW 23:23:19 34° W 23:26:09 14° SSW visible
18 Jul 5.0 21:29:20 10° N 21:32:31 25° ENE 21:35:41 10° ESE visible
18 Jul 3.8 23:04:51 10° NNW 23:08:24 40° W 23:11:04 16° SSW visible
19 Jul 5.2 21:14:29 10° NNE 21:17:30 22° ENE 21:20:29 10° ESE visible
19 Jul 3.6 22:49:49 10° NNW 22:53:28 47° W 22:55:59 18° SSW visible
20 Jul 5.4 20:59:39 10° NNE 21:02:27 19° ENE 21:05:14 10° ESE visible
20 Jul 3.4 22:34:48 10° NNW 22:38:31 55° W 22:40:54 20° S visible
21 Jul 5.5 20:44:49 10° NNE 20:47:23 17° ENE 20:49:57 10° ESE visible
21 Jul 3.2 22:19:47 10° NNW 22:23:33 66° W 22:25:50 22° S visible
